Date String (YYYY-MM-DD hh:mm:ss) UTC,Instrument flags,absolute air pressure of the measurement (hPa),sample flow rate (lpm),inlet stack bypass flow (lpm),air temperature of the measurement (°C),ambient temperature measured by the external sensor (°C),aerosol sample conditioner tube jacket temperature (°C),OPC LED temperature (°C),internal box temperature (°C),relative humidity of the measurement (%),span deviation,mass concentration of particles derived from Lorenz-Mie calculation of OPC scattering (μg/m³),mass concentration of particles derived from Lorenz-Mie calculation of OPC scattering (μg/m³),mass concentration of particles derived from Lorenz-Mie calculation of OPC scattering (μg/m³)
DateTimeUTC,F1_M11,P_M11,Q1_M11,Q2_M11,T1_M11,T2_M11,T3_M11,T4_M11,T5_M11,U1_M11,ZSPAN_M11,X2_M11,X0_M11,X1_M11
2024-03-06 11:00:00,SystemResetWarning,0821.6,5.01,000.00,018.3,017.6,000.0,026.8,020.0,18.2,0000.0,0004.27,0011.86,0003.27
2024-03-06 11:01:00,SystemResetWarning,0821.6,5.01,000.00,018.3,017.6,000.0,026.8,020.0,18.2,0000.0,0004.32,0011.73,0003.28
2024-03-06 11:02:00,SystemResetWarning,0821.6,5.00,000.00,018.3,017.6,000.0,026.8,020.0,18.3,0000.0,0004.29,0010.70,0003.27
2024-03-06 11:03:00,SystemResetWarning,0821.6,5.00,000.00,018.3,017.6,000.0,026.8,020.0,18.3,0000.0,0004.26,0010.57,0003.26
2024-03-06 11:04:00,SystemResetWarning,0821.7,4.99,000.00,018.3,017.6,000.0,026.8,020.0,18.4,0000.0,0004.26,0010.42,0003.24
2024-03-06 11:05:00,SystemResetWarning,0821.6,5.00,000.00,018.4,017.9,000.0,026.9,020.2,18.4,0000.0,0004.23,0010.40,0003.23
2024-03-06 11:06:00,SystemResetWarning,0821.7,5.01,000.00,018.6,018.7,000.0,027.0,020.7,18.2,0000.0,0004.20,0010.12,0003.24
2024-03-06 11:07:00,SystemResetWarning,0821.7,5.00,000.00,018.7,018.8,000.0,027.0,020.8,18.0,0000.0,0004.17,0010.26,0003.23
2024-03-06 11:08:00,SystemResetWarning,0821.7,5.00,000.00,018.7,018.7,000.0,027.0,020.7,18.0,0000.0,0004.19,0010.48,0003.25
2024-03-06 11:09:00,SystemResetWarning,0821.7,4.99,000.00,018.8,018.6,000.0,027.0,020.7,18.0,0000.0,0004.27,0011.49,0003.31
2024-03-06 11:10:00,SystemResetWarning,0821.7,5.00,000.00,018.8,018.6,000.0,027.0,020.6,18.0,0000.0,0004.25,0012.12,0003.34
2024-03-06 11:11:00,SystemResetWarning,0821.8,4.99,000.00,018.8,018.5,000.0,027.0,020.6,18.0,0000.0,0004.28,0012.40,0003.38
2024-03-06 11:12:00,SystemResetWarning,0821.8,5.00,000.00,018.7,018.4,000.0,027.0,020.5,18.0,0000.0,0004.32,0012.79,0003.43
2024-03-06 11:13:00,SystemResetWarning,0821.8,5.01,000.00,018.7,018.3,000.0,027.0,020.5,18.0,0000.0,0004.43,0012.89,0003.49
2024-03-06 11:14:00,SystemResetWarning,0821.7,5.01,000.00,018.7,018.2,000.0,027.0,020.4,18.0,0000.0,0004.52,0014.36,0003.56
2024-03-06 11:15:00,SystemResetWarning,0821.8,4.99,000.00,018.7,018.2,000.0,027.0,020.4,18.1,0000.0,0004.60,0014.98,0003.66
2024-03-06 11:16:00,SystemResetWarning,0821.7,4.98,000.00,018.7,018.1,000.0,027.0,020.4,18.0,0000.0,0004.70,0014.36,0003.73
2024-03-06 11:17:00,SystemResetWarning,0821.7,5.01,000.00,018.7,018.1,000.0,027.0,020.4,18.0,0000.0,0004.85,0014.37,0003.83
2024-03-06 11:18:00,SystemResetWarning,0821.8,5.01,000.00,018.7,018.1,000.0,027.1,020.4,18.0,0000.0,0004.95,0014.16,0003.92
2024-03-06 11:19:00,SystemResetWarning,0821.8,5.00,000.00,018.7,018.0,000.0,027.1,020.3,18.0,0000.0,0005.04,0014.59,0003.98
2024-03-06 11:20:00,SystemResetWarning,0821.8,5.00,000.00,018.7,018.0,000.0,027.0,020.3,18.0,0000.0,0005.06,0013.95,0004.00
2024-03-06 11:21:00,SystemResetWarning,0821.9,5.00,000.00,018.7,018.0,000.0,027.0,020.3,18.0,0000.0,0005.13,0014.26,0004.05
2024-03-06 11:22:00,SystemResetWarning,0821.9,4.98,000.00,018.6,017.9,000.0,027.0,020.3,18.1,0000.0,0005.15,0014.14,0004.09
2024-03-06 11:23:00,SystemResetWarning,0821.8,5.00,000.00,018.6,017.9,000.0,027.0,020.3,18.2,0000.0,0005.15,0014.43,0004.11
2024-03-06 11:24:00,SystemResetWarning,0821.8,5.00,000.00,018.6,017.9,000.0,027.0,020.2,18.2,0000.0,0005.12,0014.58,0004.12
2024-03-06 11:25:00,SystemResetWarning,0821.7,5.01,000.00,018.6,017.9,000.0,027.0,020.2,18.3,0000.0,0005.10,0013.76,0004.12
2024-03-06 11:26:00,SystemResetWarning,0821.7,5.00,000.00,018.6,017.9,000.0,027.0,020.2,18.4,0000.0,0005.13,0013.39,0004.12
2024-03-06 11:27:00,SystemResetWarning,0821.6,5.01,000.00,018.6,017.8,000.0,027.0,020.3,18.6,0000.0,0005.13,0013.84,0004.11
2024-03-06 11:28:00,SystemResetWarning,0821.6,5.00,000.00,018.6,017.8,000.0,027.0,020.2,18.7,0000.0,0005.05,0014.17,0004.08
2024-03-06 11:29:00,SystemResetWarning,0821.5,4.99,000.00,018.5,017.8,000.0,027.0,020.2,18.8,0000.0,0005.07,0014.25,0004.06
2024-03-06 11:30:00,SystemResetWarning,0821.7,4.99,000.00,018.5,017.8,000.0,027.0,020.2,18.9,0000.0,0005.07,0013.83,0004.04
2024-03-06 11:31:00,SystemResetWarning,0821.6,5.00,000.00,018.5,017.8,000.0,027.0,020.2,18.7,0000.0,0005.11,0014.12,0004.04
2024-03-06 11:32:00,SystemResetWarning,0821.6,5.02,000.00,018.5,017.8,000.0,027.0,020.1,18.5,0000.0,0005.12,0013.89,0004.01
2024-03-06 11:33:00,SystemResetWarning,0821.6,5.00,000.00,018.5,017.8,000.0,027.0,020.1,18.4,0000.0,0005.13,0014.02,0004.00
2024-03-06 11:34:00,SystemResetWarning,0821.8,4.99,000.00,018.5,017.8,000.0,026.9,020.1,18.6,0000.0,0005.20,0014.33,0003.99
2024-03-06 11:35:00,SystemResetWarning,0821.8,5.00,000.00,018.5,017.8,000.0,026.9,020.1,18.4,0000.0,0005.28,0014.68,0004.00
2024-03-06 11:36:00,SystemResetWarning,0821.7,5.01,000.00,018.5,017.7,000.0,026.9,020.1,18.1,0000.0,0005.27,0014.42,0004.01
2024-03-06 11:37:00,SystemResetWarning,0821.7,5.00,000.00,018.4,017.7,000.0,026.9,020.1,18.1,0000.0,0005.25,0014.11,0004.01
2024-03-06 11:38:00,SystemResetWarning,0821.7,5.00,000.00,018.4,017.6,000.0,026.9,020.0,18.0,0000.0,0005.24,0013.83,0004.01
2024-03-06 11:39:00,SystemResetWarning,0821.7,5.01,000.00,018.4,017.6,000.0,026.9,020.0,18.1,0000.0,0005.27,0013.58,0004.02
2024-03-06 11:40:00,SystemResetWarning,0821.8,5.00,000.00,018.4,017.6,000.0,026.9,020.0,18.2,0000.0,0005.32,0014.15,0004.02
2024-03-06 11:41:00,SystemResetWarning,0821.7,5.00,000.00,018.4,017.6,000.0,026.9,020.0,18.2,0000.0,0005.31,0014.41,0004.03
2024-03-06 11:42:00,SystemResetWarning,0821.6,5.00,000.00,018.4,017.6,000.0,026.9,020.0,17.7,0000.0,0005.26,0014.96,0004.04
2024-03-06 11:43:00,SystemResetWarning,0821.7,4.99,000.00,018.4,017.6,000.0,026.9,020.0,17.6,0000.0,0005.26,0014.67,0004.05
2024-03-06 11:44:00,SystemResetWarning,0821.8,5.00,000.00,018.4,017.6,000.0,026.9,020.0,18.1,0000.0,0005.26,0014.65,0004.08
2024-03-06 11:45:00,SystemResetWarning,0821.8,4.99,000.00,018.4,017.6,000.0,026.8,020.0,18.2,0000.0,0005.27,0015.13,0004.10
2024-03-06 11:46:00,SystemResetWarning,0821.9,5.00,000.00,018.4,017.6,000.0,026.9,020.0,18.1,0000.0,0005.20,0014.36,0004.11
2024-03-06 11:47:00,SystemResetWarning,0821.8,5.00,000.00,018.4,017.6,000.0,026.9,020.0,18.1,0000.0,0005.20,0014.09,0004.12
2024-03-06 11:48:00,SystemResetWarning,0821.7,5.00,000.00,018.3,017.6,000.0,026.8,020.0,18.2,0000.0,0005.22,0014.07,0004.14
2024-03-06 11:49:00,SystemResetWarning,0821.6,5.00,000.00,018.3,017.6,000.0,026.9,020.0,18.3,0000.0,0005.16,0014.20,0004.13
2024-03-06 11:50:00,SystemResetWarning,0821.7,5.00,000.00,018.3,017.6,000.0,026.9,020.0,18.3,0001.2,0005.19,0015.21,0004.15
2024-03-06 11:51:00,SystemResetWarning,0821.8,5.00,000.00,018.3,017.6,000.0,026.9,020.0,18.3,0002.8,0005.12,0014.87,0004.17
2024-03-06 11:52:00,SystemResetWarning,0821.8,5.00,000.00,018.3,017.6,000.0,026.9,020.0,18.4,0002.6,0005.06,0014.43,0004.16
2024-03-06 11:53:00,SystemResetWarning,0821.7,5.00,000.00,018.3,017.6,000.0,026.8,020.0,18.5,0001.1,0005.04,0013.82,0004.14
2024-03-06 11:54:00,SystemResetWarning,0821.7,4.99,000.00,018.3,017.6,000.0,026.8,020.0,18.5,0000.0,0005.04,0014.05,0004.12
2024-03-06 11:55:00,SystemResetWarning,0821.7,4.99,000.00,018.3,017.6,000.0,026.8,020.0,18.5,0000.0,0004.99,0014.13,0004.09
2024-03-06 11:56:00,SystemResetWarning,0821.6,4.99,000.00,018.3,017.6,000.0,026.8,020.0,18.6,0000.6,0004.89,0012.59,0004.05
2024-03-06 11:57:00,SystemResetWarning,0821.6,5.01,000.00,018.3,017.6,000.0,026.8,020.0,18.6,0000.6,0004.86,0013.69,0004.03
2024-03-06 11:58:00,SystemResetWarning,0821.7,5.00,000.00,018.3,017.6,000.0,026.8,020.0,18.6,0004.2,0004.85,0015.74,0003.99
2024-03-06 11:59:00,SystemResetWarning,0821.7,5.00,000.00,018.3,017.6,000.0,026.8,020.0,18.7,0002.3,0004.75,0017.06,0003.91
